^^
Your Local Weather - Clay, NY Station Historical Data
 
Daily Summary for November 23, 2017 Units:  English    Metric   Both
« Previous Day
Next Day »
Daily Weekly Monthly Yearly Custom
  Current: High: Low: Average:
Temperature: 26.1 °F 29.3 °F 26.1 °F 27.7 °F
Dew Point: 19.9 °F 21.3 °F 19.9 °F 20.5 °F
Humidity: 77% 77% 70% 74%
Wind Speed: 0.0mph 3.0mph 0.0mph 1.3mph
Wind Gust: 0.0mph 6.0mph - -
WindCalm - - NW
Pressure: 30.13 in 30.14 in 30.12 in -
Precipitation: 0.00 in      
Historical Graphs
 
 
Tabular Data for November 23, 2017
Time Temperature Dew Point Pressure Wind Wind Speed Wind Gust Humidity Rainfall Rate (Hourly) solar
00:00 29.2 °F 21.0 °F 30.13 in NNW 2.0 mph 3.0 mph 71% 0.00 in 0 W/m2
00:05 29.2 °F 21.0 °F 30.13 in NW 3.0 mph 3.0 mph 71% 0.00 in 0 W/m2
00:12 29.2 °F 21.0 °F 30.13 in WNW 2.0 mph 4.0 mph 71% 0.00 in 0 W/m2
00:18 29.2 °F 20.6 °F 30.13 in NW 2.0 mph 5.0 mph 70% 0.00 in 0 W/m2
00:30 29.2 °F 20.6 °F 30.13 in WNW 2.0 mph 2.0 mph 70% 0.00 in 0 W/m2
00:48 29.3 °F 21.1 °F 30.12 in WNW 3.0 mph 4.0 mph 71% 0.00 in 0 W/m2
00:54 29.2 °F 21.0 °F 30.12 in WNW 2.0 mph 4.0 mph 71% 0.00 in 0 W/m2
01:00 29.2 °F 21.3 °F 30.12 in WNW 1.0 mph 1.0 mph 72% 0.00 in 0 W/m2
01:06 29.2 °F 21.3 °F 30.12 in WNW 2.0 mph 2.0 mph 72% 0.00 in 0 W/m2
01:12 29.1 °F 21.2 °F 30.12 in North 3.0 mph 3.0 mph 72% 0.00 in 0 W/m2
01:18 29.0 °F 21.1 °F 30.12 in NW 3.0 mph 6.0 mph 72% 0.00 in 0 W/m2
01:24 28.8 °F 21.2 °F 30.12 in NW 3.0 mph 6.0 mph 73% 0.00 in 0 W/m2
01:30 28.5 °F 20.6 °F 30.12 in NW 3.0 mph 4.0 mph 72% 0.00 in 0 W/m2
01:36 28.3 °F 20.4 °F 30.12 in NW 2.0 mph 4.0 mph 72% 0.00 in 0 W/m2
01:42 28.0 °F 20.5 °F 30.12 in NW 2.0 mph 2.0 mph 73% 0.00 in 0 W/m2
01:54 27.6 °F 20.4 °F 30.12 in NW 1.0 mph 2.0 mph 74% 0.00 in 0 W/m2
02:00 27.6 °F 20.4 °F 30.12 in NW 1.0 mph 1.0 mph 74% 0.00 in 0 W/m2
02:05 27.5 °F 20.3 °F 30.13 in NW 2.0 mph 5.0 mph 74% 0.00 in 0 W/m2
02:18 27.3 °F 20.4 °F 30.12 in NW 1.0 mph 2.0 mph 75% 0.00 in 0 W/m2
02:24 27.1 °F 20.2 °F 30.12 in NW 1.0 mph 2.0 mph 75% 0.00 in 0 W/m2
02:42 26.8 °F 20.2 °F 30.12 in NW 1.0 mph 1.0 mph 76% 0.00 in 0 W/m2
02:48 26.7 °F 20.1 °F 30.12 in Calm   1.0 mph 76% 0.00 in 0 W/m2
03:00 26.7 °F 20.1 °F 30.13 in Calm     76% 0.00 in 0 W/m2
03:06 26.6 °F 20.1 °F 30.13 in Calm   3.0 mph 76% 0.00 in 0 W/m2
03:12 26.6 °F 20.1 °F 30.13 in NW 1.0 mph 1.0 mph 76% 0.00 in 0 W/m2
03:18 26.6 °F 20.1 °F 30.13 in Calm   1.0 mph 76% 0.00 in 0 W/m2
03:24 26.6 °F 20.1 °F 30.13 in NW 1.0 mph 1.0 mph 76% 0.00 in 0 W/m2
03:30 26.6 °F 20.1 °F 30.13 in NW 1.0 mph 1.0 mph 76% 0.00 in 0 W/m2
03:42 26.4 °F 19.9 °F 30.13 in Calm     76% 0.00 in 0 W/m2
03:48 26.4 °F 19.9 °F 30.13 in Calm     76% 0.00 in 0 W/m2
03:54 26.3 °F 20.1 °F 30.14 in Calm   1.0 mph 77% 0.00 in 0 W/m2
03:59 26.3 °F 20.1 °F 30.14 in Calm     77% 0.00 in 0 W/m2
04:06 26.3 °F 20.1 °F 30.14 in Calm     77% 0.00 in 0 W/m2
04:12 26.2 °F 20.0 °F 30.14 in Calm     77% 0.00 in 0 W/m2
04:18 26.1 °F 19.9 °F 30.13 in Calm     77% 0.00 in 0 W/m2
Country Meadow, Clay, NY, USA
Compliments of Weather Underground - 2 mb